owner,sensor,date,latitude,longitude,vertical_datum,wind_speed,wind_to_direction,wind_speed_of_gust,qcFlag 
ADCP,ioos:station:wmo:42887:1,2012-06-01T00:00:00Z,28.1910,-88.4960,48.2,6.9,242.0,99.0,'11111222,11111222,11144222' 
ADCP,ioos:station:wmo:42887:1,2012-06-01T00:20:00Z,28.1910,-88.4960,48.2,6.0,245.0,99.0,'11111222,11111222,11144222' 
ADCP,ioos:station:wmo:42887:1,2012-06-01T00:40:00Z,28.1910,-88.4960,48.2,6.1,234.0,99.0,'11111222,11111222,11144222' 
ADCP,ioos:station:wmo:42887:1,2012-06-01T01:00:00Z,28.1910,-88.4960,48.2,2.5,277.0,99.0,'11111222,11111222,11144222' 
ADCP,ioos:station:wmo:42887:1,2012-06-01T01:20:00Z,28.1910,-88.4960,48.2,4.0,224.0,99.0,'11111222,11111222,11144222' 
ADCP,ioos:station:wmo:42887:1,2012-06-01T01:40:00Z,28.1910,-88.4960,48.2,3.0,256.0,99.0,'11111222,11111222,11144222' 
ADCP,ioos:station:wmo:42887:1,2012-06-01T02:00:00Z,28.1910,-88.4960,48.2,5.5,295.0,99.0,'11111222,11111222,11144222' 
ADCP,ioos:station:wmo:42887:1,2012-06-01T02:20:00Z,28.1910,-88.4960,48.2,5.3,348.0,99.0,'11111222,11111222,11144222' 
ADCP,ioos:station:wmo:42887:1,2012-06-01T02:40:00Z,28.1910,-88.4960,48.2,7.1,293.0,99.0,'11111222,11111222,11144222' 
ADCP,ioos:station:wmo:42887:1,2012-06-01T03:00:00Z,28.1910,-88.4960,48.2,5.9,295.0,99.0,'11111222,11111222,11144222' 
ADCP,ioos:station:wmo:42887:1,2012-06-01T03:20:00Z,28.1910,-88.4960,48.2,1.4,285.0,99.0,'11111222,11111222,11144222' 
ADCP,ioos:station:wmo:42887:1,2012-06-01T03:40:00Z,28.1910,-88.4960,48.2,2.0,241.0,99.0,'11111222,11111222,11144222' 
ADCP,ioos:station:wmo:42887:1,2012-06-01T04:00:00Z,28.1910,-88.4960,48.2,2.8,237.0,99.0,'11111222,11111222,11144222' 
ADCP,ioos:station:wmo:42887:1,2012-06-01T04:20:00Z,28.1910,-88.4960,48.2,3.8,220.0,99.0,'11111222,11111222,11144222' 
ADCP,ioos:station:wmo:42887:1,2012-06-01T04:40:00Z,28.1910,-88.4960,48.2,4.4,200.0,99.0,'11111222,11111222,11144222' 
ADCP,ioos:station:wmo:42887:1,2012-06-01T05:00:00Z,28.1910,-88.4960,48.2,4.2,198.0,99.0,'11111222,11111222,11144222' 
ADCP,ioos:station:wmo:42887:1,2012-06-01T05:20:00Z,28.1910,-88.4960,48.2,4.3,191.0,99.0,'11111222,11111222,11144222' 
ADCP,ioos:station:wmo:42887:1,2012-06-01T05:40:00Z,28.1910,-88.4960,48.2,5.8,207.0,99.0,'11111222,11111222,11144222' 
ADCP,ioos:station:wmo:42887:1,2012-06-01T06:00:00Z,28.1910,-88.4960,48.2,5.8,203.0,99.0,'11111222,11111222,11144222' 
ADCP,ioos:station:wmo:42887:1,2012-06-01T06:20:00Z,28.1910,-88.4960,48.2,6.7,200.0,99.0,'11111222,11111222,11144222' 
ADCP,ioos:station:wmo:42887:1,2012-06-01T06:40:00Z,28.1910,-88.4960,48.2,4.8,198.0,99.0,'11111222,11111222,11144222' 
ADCP,ioos:station:wmo:42887:1,2012-06-01T07:00:00Z,28.1910,-88.4960,48.2,6.1,188.0,99.0,'11111222,11111222,11144222' 
ADCP,ioos:station:wmo:42887:1,2012-06-01T07:20:00Z,28.1910,-88.4960,48.2,7.1,203.0,99.0,'11111222,11111222,11144222' 
ADCP,ioos:station:wmo:42887:1,2012-06-01T07:40:00Z,28.1910,-88.4960,48.2,6.5,207.0,99.0,'11111222,11111222,11144222' 
ADCP,ioos:station:wmo:42887:1,2012-06-01T08:00:00Z,28.1910,-88.4960,48.2,7.1,218.0,99.0,'11111222,11111222,11144222' 
ADCP,ioos:station:wmo:42887:1,2012-06-01T08:20:00Z,28.1910,-88.4960,48.2,6.5,215.0,99.0,'11111222,11111222,11144222' 
ADCP,ioos:station:wmo:42887:1,2012-06-01T08:40:00Z,28.1910,-88.4960,48.2,6.3,216.0,99.0,'11111222,11111222,11144222' 
ADCP,ioos:station:wmo:42887:1,2012-06-01T09:00:00Z,28.1910,-88.4960,48.2,7.4,224.0,99.0,'11111222,11111222,11144222' 
ADCP,ioos:station:wmo:42887:1,2012-06-01T09:20:00Z,28.1910,-88.4960,48.2,6.9,231.0,99.0,'11111222,11111222,11144222' 
ADCP,ioos:station:wmo:42887:1,2012-06-01T09:40:00Z,28.1910,-88.4960,48.2,4.2,250.0,99.0,'11111222,11111222,11144222' 
ADCP,ioos:station:wmo:42887:1,2012-06-01T10:00:00Z,28.1910,-88.4960,48.2,2.9,238.0,99.0,'11111222,11111222,11144222' 
ADCP,ioos:station:wmo:42887:1,2012-06-01T10:20:00Z,28.1910,-88.4960,48.2,2.1,266.0,99.0,'11111222,11111222,11144222' 
ADCP,ioos:station:wmo:42887:1,2012-06-01T10:40:00Z,28.1910,-88.4960,48.2,3.8,245.0,99.0,'11111222,11111222,11144222' 
ADCP,ioos:station:wmo:42887:1,2012-06-01T11:00:00Z,28.1910,-88.4960,48.2,13.0,288.0,99.0,'11111222,11111222,11144222' 
ADCP,ioos:station:wmo:42887:1,2012-06-01T11:20:00Z,28.1910,-88.4960,48.2,9.5,283.0,99.0,'11111222,11111222,11144222' 
ADCP,ioos:station:wmo:42887:1,2012-06-01T11:40:00Z,28.1910,-88.4960,48.2,9.1,307.0,99.0,'11111222,11111222,11144222' 
ADCP,ioos:station:wmo:42887:1,2012-06-01T12:00:00Z,28.1910,-88.4960,48.2,6.8,307.0,99.0,'11111222,11111222,11144222' 
ADCP,ioos:station:wmo:42887:1,2012-06-01T12:20:00Z,28.1910,-88.4960,48.2,5.8,312.0,99.0,'11111222,11111222,11144222' 
ADCP,ioos:station:wmo:42887:1,2012-06-01T12:40:00Z,28.1910,-88.4960,48.2,6.1,284.0,99.0,'11111222,11111222,11144222' 
ADCP,ioos:station:wmo:42887:1,2012-06-01T13:00:00Z,28.1910,-88.4960,48.2,1.7,346.0,99.0,'11111222,11111222,11144222' 
ADCP,ioos:station:wmo:42887:1,2012-06-01T13:20:00Z,28.1910,-88.4960,48.2,2.4,289.0,99.0,'11111222,11111222,11144222' 
ADCP,ioos:station:wmo:42887:1,2012-06-01T13:40:00Z,28.1910,-88.4960,48.2,4.9,297.0,99.0,'11111222,11111222,11144222' 
ADCP,ioos:station:wmo:42887:1,2012-06-01T14:00:00Z,28.1910,-88.4960,48.2,6.6,343.0,99.0,'11111222,11111222,11144222' 
ADCP,ioos:station:wmo:42887:1,2012-06-01T14:20:00Z,28.1910,-88.4960,48.2,3.4,289.0,99.0,'11111222,11111222,11144222' 
ADCP,ioos:station:wmo:42887:1,2012-06-01T14:40:00Z,28.1910,-88.4960,48.2,2.7,288.0,99.0,'11111222,11111222,11144222' 
ADCP,ioos:station:wmo:42887:1,2012-06-01T15:00:00Z,28.1910,-88.4960,48.2,3.1,282.0,99.0,'11111222,11111222,11144222' 
ADCP,ioos:station:wmo:42887:1,2012-06-01T15:20:00Z,28.1910,-88.4960,48.2,1.9,276.0,99.0,'11111222,11111222,11144222' 
ADCP,ioos:station:wmo:42887:1,2012-06-01T15:40:00Z,28.1910,-88.4960,48.2,1.5,273.0,99.0,'11111222,11111222,11144222' 
ADCP,ioos:station:wmo:42887:1,2012-06-01T16:00:00Z,28.1910,-88.4960,48.2,0.6,263.0,99.0,'11111222,11111222,11144222' 
ADCP,ioos:station:wmo:42887:1,2012-06-01T16:20:00Z,28.1910,-88.4960,48.2,3.1,290.0,99.0,'11111222,11111222,11144222' 
ADCP,ioos:station:wmo:42887:1,2012-06-01T16:40:00Z,28.1910,-88.4960,48.2,6.0,290.0,99.0,'11111222,11111222,11144222' 
ADCP,ioos:station:wmo:42887:1,2012-06-01T17:00:00Z,28.1910,-88.4960,48.2,6.0,287.0,99.0,'11111222,11111222,11144222' 
ADCP,ioos:station:wmo:42887:1,2012-06-01T17:20:00Z,28.1910,-88.4960,48.2,6.8,292.0,99.0,'11111222,11111222,11144222' 
ADCP,ioos:station:wmo:42887:1,2012-06-01T17:40:00Z,28.1910,-88.4960,48.2,7.4,290.0,99.0,'11111222,11111222,11144222' 
ADCP,ioos:station:wmo:42887:1,2012-06-01T18:00:00Z,28.1910,-88.4960,48.2,7.5,295.0,99.0,'11111222,11111222,11144222' 
ADCP,ioos:station:wmo:42887:1,2012-06-01T18:20:00Z,28.1910,-88.4960,48.2,6.6,288.0,99.0,'11111222,11111222,11144222' 
ADCP,ioos:station:wmo:42887:1,2012-06-01T18:40:00Z,28.1910,-88.4960,48.2,7.5,288.0,99.0,'11111222,11111222,11144222' 
ADCP,ioos:station:wmo:42887:1,2012-06-01T19:00:00Z,28.1910,-88.4960,48.2,9.0,291.0,99.0,'11111222,11111222,11144222' 
ADCP,ioos:station:wmo:42887:1,2012-06-01T19:20:00Z,28.1910,-88.4960,48.2,7.6,291.0,99.0,'11111222,11111222,11144222' 
ADCP,ioos:station:wmo:42887:1,2012-06-01T19:40:00Z,28.1910,-88.4960,48.2,7.7,295.0,99.0,'11111222,11111222,11144222' 
ADCP,ioos:station:wmo:42887:1,2012-06-01T20:00:00Z,28.1910,-88.4960,48.2,6.7,291.0,99.0,'11111222,11111222,11144222' 
ADCP,ioos:station:wmo:42887:1,2012-06-01T20:20:00Z,28.1910,-88.4960,48.2,3.2,282.0,99.0,'11111222,11111222,11144222' 
ADCP,ioos:station:wmo:42887:1,2012-06-01T20:40:00Z,28.1910,-88.4960,48.2,5.2,283.0,99.0,'11111222,11111222,11144222' 
ADCP,ioos:station:wmo:42887:1,2012-06-01T21:00:00Z,28.1910,-88.4960,48.2,4.9,274.0,99.0,'11111222,11111222,11144222' 
ADCP,ioos:station:wmo:42887:1,2012-06-01T21:20:00Z,28.1910,-88.4960,48.2,4.5,247.0,99.0,'11111222,11111222,11144222' 
ADCP,ioos:station:wmo:42887:1,2012-06-01T21:40:00Z,28.1910,-88.4960,48.2,5.2,252.0,99.0,'11111222,11111222,11144222' 
ADCP,ioos:station:wmo:42887:1,2012-06-01T22:00:00Z,28.1910,-88.4960,48.2,5.4,254.0,99.0,'11111222,11111222,11144222' 
ADCP,ioos:station:wmo:42887:1,2012-06-01T22:20:00Z,28.1910,-88.4960,48.2,4.9,252.0,99.0,'11111222,11111222,11144222' 
ADCP,ioos:station:wmo:42887:1,2012-06-01T22:40:00Z,28.1910,-88.4960,48.2,4.3,256.0,99.0,'11111222,11111222,11144222' 
ADCP,ioos:station:wmo:42887:1,2012-06-01T23:00:00Z,28.1910,-88.4960,48.2,4.9,255.0,99.0,'11111222,11111222,11144222' 
ADCP,ioos:station:wmo:42887:1,2012-06-01T23:20:00Z,28.1910,-88.4960,48.2,5.6,266.0,99.0,'11111222,11111222,11144222' 
ADCP,ioos:station:wmo:42887:1,2012-06-01T23:40:00Z,28.1910,-88.4960,48.2,4.9,268.0,99.0,'11111222,11111222,11144222' 
ADCP,ioos:station:wmo:42887:1,2012-06-02T00:00:00Z,28.1910,-88.4960,48.2,5.3,284.0,99.0,'11111222,11111222,11144222' 
ADCP,ioos:station:wmo:42887:1,2012-06-02T00:20:00Z,28.1910,-88.4960,48.2,5.1,286.0,99.0,'11111222,11111222,11144222' 
ADCP,ioos:station:wmo:42887:1,2012-06-02T00:40:00Z,28.1910,-88.4960,48.2,4.1,286.0,99.0,'11111222,11111222,11144222' 
ADCP,ioos:station:wmo:42887:1,2012-06-02T01:00:00Z,28.1910,-88.4960,48.2,4.2,287.0,99.0,'11111222,11111222,11144222' 
ADCP,ioos:station:wmo:42887:1,2012-06-02T01:20:00Z,28.1910,-88.4960,48.2,3.8,305.0,99.0,'11111222,11111222,11144222' 
ADCP,ioos:station:wmo:42887:1,2012-06-02T01:40:00Z,28.1910,-88.4960,48.2,3.7,317.0,99.0,'11111222,11111222,11144222' 
ADCP,ioos:station:wmo:42887:1,2012-06-02T02:00:00Z,28.1910,-88.4960,48.2,4.0,295.0,99.0,'11111222,11111222,11144222' 
ADCP,ioos:station:wmo:42887:1,2012-06-02T02:20:00Z,28.1910,-88.4960,48.2,4.1,321.0,99.0,'11111222,11111222,11144222' 
ADCP,ioos:station:wmo:42887:1,2012-06-02T02:40:00Z,28.1910,-88.4960,48.2,3.4,296.0,99.0,'11111222,11111222,11144222' 
ADCP,ioos:station:wmo:42887:1,2012-06-02T03:00:00Z,28.1910,-88.4960,48.2,4.0,302.0,99.0,'11111222,11111222,11144222' 
ADCP,ioos:station:wmo:42887:1,2012-06-02T03:20:00Z,28.1910,-88.4960,48.2,5.5,319.0,99.0,'11111222,11111222,11144222' 
ADCP,ioos:station:wmo:42887:1,2012-06-02T03:40:00Z,28.1910,-88.4960,48.2,4.7,326.0,99.0,'11111222,11111222,11144222' 
ADCP,ioos:station:wmo:42887:1,2012-06-02T04:00:00Z,28.1910,-88.4960,48.2,3.1,300.0,99.0,'11111222,11111222,11144222' 
ADCP,ioos:station:wmo:42887:1,2012-06-02T04:20:00Z,28.1910,-88.4960,48.2,4.4,354.0,99.0,'11111222,11111222,11144222' 
ADCP,ioos:station:wmo:42887:1,2012-06-02T04:40:00Z,28.1910,-88.4960,48.2,4.1,344.0,99.0,'11111222,11111222,11144222' 
ADCP,ioos:station:wmo:42887:1,2012-06-02T05:00:00Z,28.1910,-88.4960,48.2,4.9,352.0,99.0,'11111222,11111222,11144222' 
ADCP,ioos:station:wmo:42887:1,2012-06-02T05:20:00Z,28.1910,-88.4960,48.2,4.8,346.0,99.0,'11111222,11111222,11144222' 
ADCP,ioos:station:wmo:42887:1,2012-06-02T05:40:00Z,28.1910,-88.4960,48.2,4.2,356.0,99.0,'11111222,11111222,11144222' 
ADCP,ioos:station:wmo:42887:1,2012-06-02T06:00:00Z,28.1910,-88.4960,48.2,4.9,2.0,99.0,'11111222,11111222,11144222' 
ADCP,ioos:station:wmo:42887:1,2012-06-02T06:20:00Z,28.1910,-88.4960,48.2,3.8,355.0,99.0,'11111222,11111222,11144222' 
ADCP,ioos:station:wmo:42887:1,2012-06-02T06:40:00Z,28.1910,-88.4960,48.2,3.9,355.0,99.0,'11111222,11111222,11144222' 
ADCP,ioos:station:wmo:42887:1,2012-06-02T07:00:00Z,28.1910,-88.4960,48.2,3.0,359.0,99.0,'11111222,11111222,11144222' 
ADCP,ioos:station:wmo:42887:1,2012-06-02T07:20:00Z,28.1910,-88.4960,48.2,3.0,359.0,99.0,'11111222,11111222,11144222' 
ADCP,ioos:station:wmo:42887:1,2012-06-02T07:40:00Z,28.1910,-88.4960,48.2,2.5,359.0,99.0,'11111222,11111222,11144222' 
ADCP,ioos:station:wmo:42887:1,2012-06-02T08:00:00Z,28.1910,-88.4960,48.2,2.9,359.0,99.0,'11111222,11111222,11144222' 
ADCP,ioos:station:wmo:42887:1,2012-06-02T08:20:00Z,28.1910,-88.4960,48.2,2.4,359.0,99.0,'11111222,11111222,11144222' 
ADCP,ioos:station:wmo:42887:1,2012-06-02T08:40:00Z,28.1910,-88.4960,48.2,1.9,4.0,99.0,'11111222,11111222,11144222' 
ADCP,ioos:station:wmo:42887:1,2012-06-02T09:00:00Z,28.1910,-88.4960,48.2,2.5,5.0,99.0,'11111222,11111222,11144222' 
ADCP,ioos:station:wmo:42887:1,2012-06-02T09:20:00Z,28.1910,-88.4960,48.2,2.3,4.0,99.0,'11111222,11111222,11144222' 
ADCP,ioos:station:wmo:42887:1,2012-06-02T09:40:00Z,28.1910,-88.4960,48.2,2.9,10.0,99.0,'11111222,11111222,11144222' 
ADCP,ioos:station:wmo:42887:1,2012-06-02T10:00:00Z,28.1910,-88.4960,48.2,2.5,12.0,99.0,'11111222,11111222,11144222' 
ADCP,ioos:station:wmo:42887:1,2012-06-02T10:20:00Z,28.1910,-88.4960,48.2,1.9,11.0,99.0,'11111222,11111222,11144222' 
ADCP,ioos:station:wmo:42887:1,2012-06-02T10:40:00Z,28.1910,-88.4960,48.2,2.6,12.0,99.0,'11111222,11111222,11144222' 
ADCP,ioos:station:wmo:42887:1,2012-06-02T11:00:00Z,28.1910,-88.4960,48.2,2.6,11.0,99.0,'11111222,11111222,11144222' 
ADCP,ioos:station:wmo:42887:1,2012-06-02T11:20:00Z,28.1910,-88.4960,48.2,2.5,11.0,99.0,'11111222,11111222,11144222' 
ADCP,ioos:station:wmo:42887:1,2012-06-02T11:40:00Z,28.1910,-88.4960,48.2,2.9,11.0,99.0,'11111222,11111222,11144222' 
ADCP,ioos:station:wmo:42887:1,2012-06-02T12:00:00Z,28.1910,-88.4960,48.2,3.6,11.0,99.0,'11111222,11111222,11144222' 
ADCP,ioos:station:wmo:42887:1,2012-06-02T12:20:00Z,28.1910,-88.4960,48.2,2.7,12.0,99.0,'11111222,11111222,11144222' 
ADCP,ioos:station:wmo:42887:1,2012-06-02T12:40:00Z,28.1910,-88.4960,48.2,3.1,29.0,99.0,'11111222,11111222,11144222' 
ADCP,ioos:station:wmo:42887:1,2012-06-02T13:00:00Z,28.1910,-88.4960,48.2,2.2,29.0,99.0,'11111222,11111222,11144222' 
ADCP,ioos:station:wmo:42887:1,2012-06-02T13:20:00Z,28.1910,-88.4960,48.2,2.9,29.0,99.0,'11111222,11111222,11144222' 
ADCP,ioos:station:wmo:42887:1,2012-06-02T13:40:00Z,28.1910,-88.4960,48.2,2.4,29.0,99.0,'11111222,11111222,11144222' 
ADCP,ioos:station:wmo:42887:1,2012-06-02T14:00:00Z,28.1910,-88.4960,48.2,2.8,30.0,99.0,'11111222,11111222,11144222' 
ADCP,ioos:station:wmo:42887:1,2012-06-02T14:20:00Z,28.1910,-88.4960,48.2,2.5,29.0,99.0,'11111222,11111222,11144222' 
ADCP,ioos:station:wmo:42887:1,2012-06-02T14:40:00Z,28.1910,-88.4960,48.2,2.6,29.0,99.0,'11111222,11111222,11144222' 
ADCP,ioos:station:wmo:42887:1,2012-06-02T15:00:00Z,28.1910,-88.4960,48.2,2.6,29.0,99.0,'11111222,11111222,11144222' 
ADCP,ioos:station:wmo:42887:1,2012-06-02T15:20:00Z,28.1910,-88.4960,48.2,3.0,29.0,99.0,'11111222,11111222,11144222' 
ADCP,ioos:station:wmo:42887:1,2012-06-02T15:40:00Z,28.1910,-88.4960,48.2,3.3,43.0,99.0,'11111222,11111222,11144222' 
ADCP,ioos:station:wmo:42887:1,2012-06-02T16:00:00Z,28.1910,-88.4960,48.2,2.5,43.0,99.0,'11111222,11111222,11144222' 
ADCP,ioos:station:wmo:42887:1,2012-06-02T16:20:00Z,28.1910,-88.4960,48.2,2.1,43.0,99.0,'11111222,11111222,11144222' 
ADCP,ioos:station:wmo:42887:1,2012-06-02T16:40:00Z,28.1910,-88.4960,48.2,2.0,43.0,99.0,'11111222,11111222,11144222' 
ADCP,ioos:station:wmo:42887:1,2012-06-02T17:00:00Z,28.1910,-88.4960,48.2,2.4,43.0,99.0,'11111222,11111222,11144222' 
ADCP,ioos:station:wmo:42887:1,2012-06-02T17:20:00Z,28.1910,-88.4960,48.2,2.6,43.0,99.0,'11111222,11111222,11144222' 
ADCP,ioos:station:wmo:42887:1,2012-06-02T17:40:00Z,28.1910,-88.4960,48.2,2.9,43.0,99.0,'11111222,11111222,11144222' 
ADCP,ioos:station:wmo:42887:1,2012-06-02T18:00:00Z,28.1910,-88.4960,48.2,3.0,43.0,99.0,'11111222,11111222,11144222' 
ADCP,ioos:station:wmo:42887:1,2012-06-02T18:20:00Z,28.1910,-88.4960,48.2,2.9,42.0,99.0,'11111222,11111222,11144222' 
ADCP,ioos:station:wmo:42887:1,2012-06-02T18:40:00Z,28.1910,-88.4960,48.2,2.8,42.0,99.0,'11111222,11111222,11144222' 
ADCP,ioos:station:wmo:42887:1,2012-06-02T19:00:00Z,28.1910,-88.4960,48.2,3.3,35.0,99.0,'11111222,11111222,11144222' 
ADCP,ioos:station:wmo:42887:1,2012-06-02T19:20:00Z,28.1910,-88.4960,48.2,3.1,45.0,99.0,'11111222,11111222,11144222' 
ADCP,ioos:station:wmo:42887:1,2012-06-02T19:40:00Z,28.1910,-88.4960,48.2,4.1,45.0,99.0,'11111222,11111222,11144222' 
ADCP,ioos:station:wmo:42887:1,2012-06-02T20:00:00Z,28.1910,-88.4960,48.2,3.2,47.0,99.0,'11111222,11111222,11144222' 
ADCP,ioos:station:wmo:42887:1,2012-06-02T20:20:00Z,28.1910,-88.4960,48.2,1.8,45.0,99.0,'11111222,11111222,11144222' 
ADCP,ioos:station:wmo:42887:1,2012-06-02T20:40:00Z,28.1910,-88.4960,48.2,1.9,82.0,99.0,'11111222,11111222,11144222' 
ADCP,ioos:station:wmo:42887:1,2012-06-02T21:00:00Z,28.1910,-88.4960,48.2,2.5,102.0,99.0,'11111222,11111222,11144222' 
ADCP,ioos:station:wmo:42887:1,2012-06-02T21:20:00Z,28.1910,-88.4960,48.2,3.0,87.0,99.0,'11111222,11111222,11144222' 
ADCP,ioos:station:wmo:42887:1,2012-06-02T21:40:00Z,28.1910,-88.4960,48.2,2.7,98.0,99.0,'11111222,11111222,11144222' 
ADCP,ioos:station:wmo:42887:1,2012-06-02T22:00:00Z,28.1910,-88.4960,48.2,2.0,95.0,99.0,'11111222,11111222,11144222' 
ADCP,ioos:station:wmo:42887:1,2012-06-02T22:20:00Z,28.1910,-88.4960,48.2,2.5,115.0,99.0,'11111222,11111222,11144222' 
ADCP,ioos:station:wmo:42887:1,2012-06-02T22:40:00Z,28.1910,-88.4960,48.2,1.4,97.0,99.0,'11111222,11111222,11144222' 
ADCP,ioos:station:wmo:42887:1,2012-06-02T23:00:00Z,28.1910,-88.4960,48.2,1.4,85.0,99.0,'11111222,11111222,11144222' 
ADCP,ioos:station:wmo:42887:1,2012-06-02T23:20:00Z,28.1910,-88.4960,48.2,2.0,87.0,99.0,'11111222,11111222,11144222' 
ADCP,ioos:station:wmo:42887:1,2012-06-02T23:40:00Z,28.1910,-88.4960,48.2,1.3,111.0,99.0,'11111222,11111222,11144222' 
ADCP,ioos:station:wmo:42887:1,2012-06-03T00:00:00Z,28.1910,-88.4960,48.2,1.0,101.0,99.0,'11111222,11111222,11144222' 
ADCP,ioos:station:wmo:42887:1,2012-06-03T00:20:00Z,28.1910,-88.4960,48.2,2.1,99.0,99.0,'11111222,11111222,11144222' 
ADCP,ioos:station:wmo:42887:1,2012-06-03T00:40:00Z,28.1910,-88.4960,48.2,1.8,131.0,99.0,'11111222,11111222,11144222' 
ADCP,ioos:station:wmo:42887:1,2012-06-03T01:00:00Z,28.1910,-88.4960,48.2,1.8,114.0,99.0,'11111222,11111222,11144222' 
ADCP,ioos:station:wmo:42887:1,2012-06-03T01:20:00Z,28.1910,-88.4960,48.2,2.1,101.0,99.0,'11111222,11111222,11144222' 
ADCP,ioos:station:wmo:42887:1,2012-06-03T01:40:00Z,28.1910,-88.4960,48.2,1.7,116.0,99.0,'11111222,11111222,11144222' 
ADCP,ioos:station:wmo:42887:1,2012-06-03T02:00:00Z,28.1910,-88.4960,48.2,1.7,128.0,99.0,'11111222,11111222,11144222' 
ADCP,ioos:station:wmo:42887:1,2012-06-03T02:20:00Z,28.1910,-88.4960,48.2,1.4,100.0,99.0,'11111222,11111222,11144222' 
ADCP,ioos:station:wmo:42887:1,2012-06-03T02:40:00Z,28.1910,-88.4960,48.2,1.3,147.0,99.0,'11111222,11111222,11144222' 
ADCP,ioos:station:wmo:42887:1,2012-06-03T03:00:00Z,28.1910,-88.4960,48.2,1.4,129.0,99.0,'11111222,11111222,11144222' 
ADCP,ioos:station:wmo:42887:1,2012-06-03T03:20:00Z,28.1910,-88.4960,48.2,1.2,120.0,99.0,'11111222,11111222,11144222' 
ADCP,ioos:station:wmo:42887:1,2012-06-03T03:40:00Z,28.1910,-88.4960,48.2,1.3,124.0,99.0,'11111222,11111222,11144222' 
ADCP,ioos:station:wmo:42887:1,2012-06-03T04:00:00Z,28.1910,-88.4960,48.2,1.5,141.0,99.0,'11111222,11111222,11144222' 
ADCP,ioos:station:wmo:42887:1,2012-06-03T04:20:00Z,28.1910,-88.4960,48.2,2.0,167.0,99.0,'11111222,11111222,11144222' 
ADCP,ioos:station:wmo:42887:1,2012-06-03T04:40:00Z,28.1910,-88.4960,48.2,1.8,166.0,99.0,'11111222,11111222,11144222' 
ADCP,ioos:station:wmo:42887:1,2012-06-03T05:00:00Z,28.1910,-88.4960,48.2,1.7,162.0,99.0,'11111222,11111222,11144222' 
ADCP,ioos:station:wmo:42887:1,2012-06-03T05:20:00Z,28.1910,-88.4960,48.2,1.7,151.0,99.0,'11111222,11111222,11144222' 
ADCP,ioos:station:wmo:42887:1,2012-06-03T05:40:00Z,28.1910,-88.4960,48.2,1.5,167.0,99.0,'11111222,11111222,11144222' 
ADCP,ioos:station:wmo:42887:1,2012-06-03T06:00:00Z,28.1910,-88.4960,48.2,1.7,164.0,99.0,'11111222,11111222,11144222' 
ADCP,ioos:station:wmo:42887:1,2012-06-03T06:20:00Z,28.1910,-88.4960,48.2,2.1,177.0,99.0,'11111222,11111222,11144222' 
ADCP,ioos:station:wmo:42887:1,2012-06-03T06:40:00Z,28.1910,-88.4960,48.2,2.6,164.0,99.0,'11111222,11111222,11144222' 
ADCP,ioos:station:wmo:42887:1,2012-06-03T07:00:00Z,28.1910,-88.4960,48.2,2.1,167.0,99.0,'11111222,11111222,11144222' 
ADCP,ioos:station:wmo:42887:1,2012-06-03T07:20:00Z,28.1910,-88.4960,48.2,2.4,181.0,99.0,'11111222,11111222,11144222' 
ADCP,ioos:station:wmo:42887:1,2012-06-03T07:40:00Z,28.1910,-88.4960,48.2,2.1,182.0,99.0,'11111222,11111222,11144222' 
ADCP,ioos:station:wmo:42887:1,2012-06-03T08:00:00Z,28.1910,-88.4960,48.2,2.5,189.0,99.0,'11111222,11111222,11144222' 
ADCP,ioos:station:wmo:42887:1,2012-06-03T08:20:00Z,28.1910,-88.4960,48.2,2.2,181.0,99.0,'11111222,11111222,11144222' 
ADCP,ioos:station:wmo:42887:1,2012-06-03T08:40:00Z,28.1910,-88.4960,48.2,2.5,186.0,99.0,'11111222,11111222,11144222' 
ADCP,ioos:station:wmo:42887:1,2012-06-03T09:00:00Z,28.1910,-88.4960,48.2,1.4,196.0,99.0,'11111222,11111222,11144222' 
ADCP,ioos:station:wmo:42887:1,2012-06-03T09:20:00Z,28.1910,-88.4960,48.2,2.4,193.0,99.0,'11111222,11111222,11144222' 
ADCP,ioos:station:wmo:42887:1,2012-06-03T09:40:00Z,28.1910,-88.4960,48.2,3.0,197.0,99.0,'11111222,11111222,11144222' 
ADCP,ioos:station:wmo:42887:1,2012-06-03T10:00:00Z,28.1910,-88.4960,48.2,1.7,205.0,99.0,'11111222,11111222,11144222' 
ADCP,ioos:station:wmo:42887:1,2012-06-03T10:20:00Z,28.1910,-88.4960,48.2,2.5,202.0,99.0,'11111222,11111222,11144222' 
ADCP,ioos:station:wmo:42887:1,2012-06-03T10:40:00Z,28.1910,-88.4960,48.2,2.9,188.0,99.0,'11111222,11111222,11144222' 
ADCP,ioos:station:wmo:42887:1,2012-06-03T11:00:00Z,28.1910,-88.4960,48.2,2.6,198.0,99.0,'11111222,11111222,11144222' 
ADCP,ioos:station:wmo:42887:1,2012-06-03T11:20:00Z,28.1910,-88.4960,48.2,2.0,207.0,99.0,'11111222,11111222,11144222' 
ADCP,ioos:station:wmo:42887:1,2012-06-03T11:40:00Z,28.1910,-88.4960,48.2,1.7,198.0,99.0,'11111222,11111222,11144222' 
ADCP,ioos:station:wmo:42887:1,2012-06-03T12:00:00Z,28.1910,-88.4960,48.2,2.4,189.0,99.0,'11111222,11111222,11144222' 
ADCP,ioos:station:wmo:42887:1,2012-06-03T12:20:00Z,28.1910,-88.4960,48.2,2.3,178.0,99.0,'11111222,11111222,11144222' 
ADCP,ioos:station:wmo:42887:1,2012-06-03T12:40:00Z,28.1910,-88.4960,48.2,2.1,197.0,99.0,'11111222,11111222,11144222' 
ADCP,ioos:station:wmo:42887:1,2012-06-03T13:00:00Z,28.1910,-88.4960,48.2,1.9,190.0,99.0,'11111222,11111222,11144222' 
ADCP,ioos:station:wmo:42887:1,2012-06-03T13:20:00Z,28.1910,-88.4960,48.2,2.7,190.0,99.0,'11111222,11111222,11144222' 
ADCP,ioos:station:wmo:42887:1,2012-06-03T13:40:00Z,28.1910,-88.4960,48.2,2.9,194.0,99.0,'11111222,11111222,11144222' 
ADCP,ioos:station:wmo:42887:1,2012-06-03T14:00:00Z,28.1910,-88.4960,48.2,2.7,212.0,99.0,'11111222,11111222,11144222' 
ADCP,ioos:station:wmo:42887:1,2012-06-03T14:20:00Z,28.1910,-88.4960,48.2,2.6,197.0,99.0,'11111222,11111222,11144222' 
ADCP,ioos:station:wmo:42887:1,2012-06-03T14:40:00Z,28.1910,-88.4960,48.2,2.5,200.0,99.0,'11111222,11111222,11144222' 
ADCP,ioos:station:wmo:42887:1,2012-06-03T15:00:00Z,28.1910,-88.4960,48.2,2.6,201.0,99.0,'11111222,11111222,11144222' 
ADCP,ioos:station:wmo:42887:1,2012-06-03T15:20:00Z,28.1910,-88.4960,48.2,2.6,199.0,99.0,'11111222,11111222,11144222' 
ADCP,ioos:station:wmo:42887:1,2012-06-03T15:40:00Z,28.1910,-88.4960,48.2,2.7,201.0,99.0,'11111222,11111222,11144222' 
ADCP,ioos:station:wmo:42887:1,2012-06-03T16:00:00Z,28.1910,-88.4960,48.2,3.5,199.0,99.0,'11111222,11111222,11144222' 
ADCP,ioos:station:wmo:42887:1,2012-06-03T16:20:00Z,28.1910,-88.4960,48.2,3.3,209.0,99.0,'11111222,11111222,11144222' 
ADCP,ioos:station:wmo:42887:1,2012-06-03T16:40:00Z,28.1910,-88.4960,48.2,3.4,213.0,99.0,'11111222,11111222,11144222' 
ADCP,ioos:station:wmo:42887:1,2012-06-03T17:00:00Z,28.1910,-88.4960,48.2,2.8,201.0,99.0,'11111222,11111222,11144222' 
ADCP,ioos:station:wmo:42887:1,2012-06-03T17:20:00Z,28.1910,-88.4960,48.2,1.9,215.0,99.0,'11111222,11111222,11144222' 
ADCP,ioos:station:wmo:42887:1,2012-06-03T17:40:00Z,28.1910,-88.4960,48.2,2.5,215.0,99.0,'11111222,11111222,11144222' 
ADCP,ioos:station:wmo:42887:1,2012-06-03T18:00:00Z,28.1910,-88.4960,48.2,2.4,219.0,99.0,'11111222,11111222,11144222' 
ADCP,ioos:station:wmo:42887:1,2012-06-03T18:20:00Z,28.1910,-88.4960,48.2,1.7,205.0,99.0,'11111222,11111222,11144222' 
ADCP,ioos:station:wmo:42887:1,2012-06-03T18:40:00Z,28.1910,-88.4960,48.2,1.4,208.0,99.0,'11111222,11111222,11144222' 
ADCP,ioos:station:wmo:42887:1,2012-06-03T19:00:00Z,28.1910,-88.4960,48.2,0.9,212.0,99.0,'11111222,11111222,11144222' 